This is the latest recevied weather packets stored in our database for station/object K9MWD. If no packets are shown the sender has not sent any weather packets the latest 10 day(s).
| Time | Temp. | Humidity | Pressure | Rain* | Wind** | Luminosity | Snow |
|---|---|---|---|---|---|---|---|
| 1777667533 | 16.11° C | 66% | 1015.7 hPa | 0 mm | - | 292 W/m² | - |
| 1777667230 | 16.11° C | 63% | 1015.7 hPa | 0 mm | - | 254 W/m² | - |
| 1777666927 | 16.11° C | 62% | 1015.9 hPa | 0 mm | - | 242 W/m² | - |
| 1777666624 | 16.11° C | 63% | 1016 hPa | 0 mm | - | 230 W/m² | - |
| 1777666320 | 16.11° C | 63% | 1016 hPa | 0 mm | - | 277 W/m² | - |
| 1777666017 | 15.56° C | 63% | 1016 hPa | 0 mm | - | 232 W/m² | - |
| 1777665715 | 15.56° C | 60% | 1016 hPa | 0 mm | - | 163 W/m² | - |
| 1777665412 | 16.11° C | 59% | 1015.8 hPa | 0 mm | - | 125 W/m² | - |
| 1777665107 | 15.56° C | 58% | 1016.3 hPa | 0 mm | - | 93 W/m² | - |
| 1777664803 | 16.11° C | 60% | 1016 hPa | 0 mm | - | 90 W/m² | - |
| 1777664499 | 16.11° C | 59% | 1016.2 hPa | 0 mm | - | 92 W/m² | - |
| 1777664196 | 16.11° C | 60% | 1016.2 hPa | 0 mm | - | 93 W/m² | - |
| 1777663895 | 16.11° C | 60% | 1016.1 hPa | 0 mm | - | 127 W/m² | - |
| 1777663592 | 16.11° C | 62% | 1015.8 hPa | 0 mm | - | 134 W/m² | - |
| 1777663289 | 16.11° C | 61% | 1015.5 hPa | 0 mm | - | 141 W/m² | - |
| 1777662986 | 16.11° C | 62% | 1015.4 hPa | 0 mm | - | 171 W/m² | - |
| 1777662683 | 16.11° C | 61% | 1015.3 hPa | 0 mm | - | 180 W/m² | - |
| 1777662380 | 16.11° C | 60% | 1015 hPa | 0 mm | - | 297 W/m² | - |
| 1777662075 | 16.11° C | 61% | 1015.3 hPa | 0 mm | - | 324 W/m² | - |
| 1777661771 | 16.11° C | 60% | 1015.6 hPa | 0 mm | - | 226 W/m² | - |
| 1777661467 | 16.11° C | 63% | 1016.3 hPa | 0 mm | - | 219 W/m² | - |
| 1777661163 | 16.11° C | 62% | 1016.3 hPa | 0 mm | - | 282 W/m² | - |
| 1777660858 | 16.11° C | 62% | 1015.7 hPa | 0 mm | - | 252 W/m² | - |
| 1777660555 | 16.11° C | 64% | 1015.8 hPa | 0 mm | - | 286 W/m² | - |
| 1777660251 | 16.11° C | 63% | 1015.5 hPa | 0 mm | - | 330 W/m² | - |
* Rain latest hour (hover to see other rain measurements)
** Current wind speed in m/s (hover to see current wind gust speed)